Back to catalog

CHECKMATE 4

AliveMilitaryPO
NORAD 56164·PAYLOAD·🇺🇸 United States

Launched Apr 2, 2023 from Vandenberg Space Force Base

Loading…

Next Passes (next 24 hours)

TLE

FreshSource: Space-Track

Epoch: Sep 14, 2026, 05:37 UTC

1 56164U 23050C   26257.23463849  .00000054  00000-0  37950-4 0  9990
2 56164  81.0052 346.4452 0006667  97.7070 262.4844 13.84820958174463

Track CHECKMATE 4 in real time with AllMySat

Download on the App Store